Weather reports worldwide

Advertisment
Reus, Spain (8175): temperature & dewpoint: 11.06.2019 20:00:00 - 17.06.2019 20:00:00 (CEST)Reus, Spain (8175): wind speed: 11.06.2019 20:00:00 - 17.06.2019 20:00:00 (CEST)Reus, Spain (8175): wind direction: 11.06.2019 20:00:00 - 17.06.2019 20:00:00 (CEST)Reus, Spain (8175): reduced air pressure: 11.06.2019 20:00:00 - 17.06.2019 20:00:00 (CEST)Reus, Spain (8175): visibility: 11.06.2019 20:00:00 - 17.06.2019 20:00:00 (CEST)
Date & Time tt [°C] td [°C] ff [km/h] ff [kn] dd ppp [hPa] vv [km]
17.06.2019 20:00:00 - - - - - - -
17.06.2019 19:00:00 24,6 15,7 13 7 SSW 1015,5 30
17.06.2019 18:00:00 24,8 15,8 15 8 SSW 1015,6 18
17.06.2019 17:00:00 25,2 16,9 15 8 S 1015,9 30
17.06.2019 16:00:00 25,5 17,6 13 7 SSW 1016,2 24
17.06.2019 15:00:00 25,3 17,8 15 8 S 1016,5 30
17.06.2019 14:00:00 25,5 17,3 15 8 S 1016,6 30
17.06.2019 13:00:00 26,0 16,4 13 7 S 1016,5 25
17.06.2019 12:00:00 25,2 16,7 11 6 S 1016,6 23
17.06.2019 11:00:00 24,6 17,3 5 3 SSW 1016,8 30
17.06.2019 10:00:00 22,4 16,6 8 4 SSW 1017,4 20
17.06.2019 09:00:00 20,2 16,7 4 2 ESE 1017,7 16
17.06.2019 08:00:00 18,0 14,5 9 5 NE 1017,7 30
17.06.2019 07:00:00 16,2 14,3 5 3 N 1017,5 16
17.06.2019 06:00:00 16,2 13,5 9 5 NW 1017,2 30
17.06.2019 05:00:00 14,3 12,0 8 4 ENE 1017,3 30
17.06.2019 04:00:00 16,4 13,3 11 6 N 1017,0 30
17.06.2019 03:00:00 16,4 13,5 11 6 N 1017,6 30
17.06.2019 02:00:00 16,8 14,0 8 4 N 1018,0 30
17.06.2019 01:00:00 18,0 15,8 4 2 N 1018,0 25
17.06.2019 00:00:00 17,9 16,1 8 4 SSW 1018,4 18
16.06.2019 23:00:00 18,3 16,0 9 5 SSW 1018,1 29
16.06.2019 22:00:00 19,4 15,8 8 4 SSW 1018,1 30
16.06.2019 21:00:00 20,4 14,8 11 6 SSW 1017,9 30
16.06.2019 20:00:00 21,2 13,8 15 8 SW 1018,0 30
16.06.2019 19:00:00 22,1 14,3 18 10 SSW 1018,1 30
16.06.2019 18:00:00 23,3 15,4 13 7 SSW 1018,0 30
16.06.2019 17:00:00 23,8 15,9 18 10 SSW 1018,8 30
16.06.2019 16:00:00 24,3 15,2 18 10 SSW 1019,2 30
16.06.2019 15:00:00 25,2 14,9 18 10 S 1019,6 30
16.06.2019 14:00:00 24,8 13,7 24 13 S 1020,1 30
16.06.2019 13:00:00 25,2 14,3 18 10 S 1020,3 29
16.06.2019 12:00:00 25,2 13,8 18 10 S 1020,3 22
16.06.2019 11:00:00 24,5 13,9 13 7 S 1020,9 30
16.06.2019 10:00:00 23,6 13,9 11 6 SW 1020,5 30
16.06.2019 09:00:00 21,9 14,1 5 3 WSW 1020,5 30
16.06.2019 08:00:00 18,6 14,6 5 3 NNE 1020,5 30
16.06.2019 07:00:00 15,5 13,7 8 4 N 1020,3 13
16.06.2019 06:00:00 15,1 13,6 11 6 N 1020,2 24
16.06.2019 05:00:00 15,1 13,6 8 4 N 1020,3 25
16.06.2019 04:00:00 15,6 13,7 4 2 NW 1020,6 29
16.06.2019 03:00:00 16,4 14,3 4 2 N 1020,9 23
16.06.2019 02:00:00 16,8 14,8 9 5 NW 1021,1 21
16.06.2019 01:00:00 17,5 15,3 5 3 N 1021,4 21
16.06.2019 00:00:00 18,1 15,7 4 2 NNE 1021,0 30
15.06.2019 23:00:00 18,4 16,2 8 4 ENE 1020,5 23
15.06.2019 22:00:00 18,8 17,3 11 6 ENE 1019,3 13
15.06.2019 21:00:00 20,0 17,4 13 7 E 1018,1 12
15.06.2019 20:00:00 21,7 17,1 15 8 ESE 1017,3 20
15.06.2019 19:00:00 23,7 16,4 13 7 SE 1016,5 21
15.06.2019 18:00:00 25,0 14,2 13 7 SSE 1016,1 30
15.06.2019 17:00:00 25,7 14,2 22 12 SE 1016,0 30
15.06.2019 16:00:00 27,7 13,5 15 8 SSE 1015,4 30
15.06.2019 15:00:00 27,6 14,1 13 7 SSE 1015,6 30
15.06.2019 14:00:00 26,4 14,4 18 10 SSE 1015,8 30
15.06.2019 13:00:00 25,8 15,8 18 10 SE 1016,1 30
15.06.2019 12:00:00 25,5 16,4 16 9 SE 1016,0 30
15.06.2019 11:00:00 24,3 16,0 13 7 ESE 1016,1 30
15.06.2019 10:00:00 22,8 16,1 11 6 SE 1016,0 27
15.06.2019 09:00:00 20,9 17,5 11 6 SE 1015,8 13
15.06.2019 08:00:00 18,0 15,9 5 3 N 1015,1 25
15.06.2019 07:00:00 14,8 14,1 2 1 ESE 1014,5 7
15.06.2019 06:00:00 16,2 14,8 4 2 NNW 1013,6 8
15.06.2019 05:00:00 16,2 14,0 11 6 N 1013,8 16
15.06.2019 04:00:00 16,1 14,0 11 6 N 1013,9 21
15.06.2019 03:00:00 16,4 13,5 9 5 NNW 1013,7 26
15.06.2019 02:00:00 16,1 13,4 8 4 N 1013,6 27
15.06.2019 01:00:00 16,7 13,5 11 6 N 1013,5 30
15.06.2019 00:00:00 15,8 13,5 9 5 ENE 1013,5 30
14.06.2019 23:00:00 18,5 13,7 0 0 N 1013,3 30
14.06.2019 22:00:00 19,1 13,3 5 3 S 1012,5 30
14.06.2019 21:00:00 20,7 13,8 8 4 SSW 1011,9 30
14.06.2019 20:00:00 22,1 14,8 13 7 SSW 1011,3 30
14.06.2019 19:00:00 23,1 14,4 18 10 SSW 1010,7 29
14.06.2019 18:00:00 23,4 15,2 22 12 SSW 1010,7 28
14.06.2019 17:00:00 24,0 16,1 22 12 SSW 1010,8 30
14.06.2019 16:00:00 24,3 15,6 28 15 SSW 1010,4 14
14.06.2019 15:00:00 22,8 14,9 37 20 SSW 1010,2 17
14.06.2019 14:00:00 24,3 14,3 35 19 SSW 1009,9 27
14.06.2019 13:00:00 24,2 13,4 34 18 SSW 1009,9 30
14.06.2019 12:00:00 23,8 12,1 26 14 SSW 1009,8 25
14.06.2019 11:00:00 25,4 11,4 8 4 SE 1009,5 30
14.06.2019 10:00:00 24,1 13,2 8 4 WSW 1009,5 30
14.06.2019 09:00:00 20,8 11,7 13 7 W 1009,0 30
14.06.2019 08:00:00 18,5 13,4 5 3 SW 1008,6 30
14.06.2019 07:00:00 17,5 12,5 5 3 SW 1008,5 30
14.06.2019 06:00:00 17,7 10,5 11 6 WSW 1008,1 30
14.06.2019 05:00:00 20,2 10,5 4 2 NNW 1007,9 30
14.06.2019 04:00:00 20,3 9,4 13 7 NNE 1008,9 30
14.06.2019 03:00:00 19,5 7,5 18 10 NNE 1009,4 30
14.06.2019 02:00:00 15,6 7,2 5 3 NE 1011,8 30
14.06.2019 01:00:00 14,4 10,5 8 4 NE 1012,3 30
14.06.2019 00:00:00 16,0 12,5 9 5 NW 1013,0 30
13.06.2019 23:00:00 16,6 13,7 8 4 NW 1012,9 30
13.06.2019 22:00:00 17,2 13,8 0 0 N 1012,5 30
13.06.2019 21:00:00 18,5 12,3 4 2 SSE 1012,3 30
13.06.2019 20:00:00 19,7 11,3 11 6 ESE 1012,0 30
13.06.2019 19:00:00 20,8 9,6 13 7 ESE 1012,1 30
13.06.2019 18:00:00 21,4 11,9 15 8 ESE 1012,6 30
13.06.2019 17:00:00 21,4 11,9 15 8 ESE 1013,1 30
13.06.2019 16:00:00 20,8 13,9 13 7 SE 1014,2 30
13.06.2019 15:00:00 20,6 12,7 16 9 ESE 1013,8 30
13.06.2019 14:00:00 22,2 13,9 18 10 SE 1013,5 30
13.06.2019 13:00:00 22,6 14,0 13 7 SE 1014,2 30
13.06.2019 12:00:00 21,7 12,8 18 10 SE 1015,3 30
13.06.2019 11:00:00 21,5 12,5 15 8 SE 1015,1 30
13.06.2019 10:00:00 20,2 11,7 13 7 ESE 1015,2 30
13.06.2019 09:00:00 19,0 11,2 13 7 NE 1014,9 30
13.06.2019 08:00:00 16,7 11,8 13 7 NNE 1014,8 30
13.06.2019 07:00:00 14,4 11,7 13 7 NNE 1014,6 30
13.06.2019 06:00:00 13,7 11,0 15 8 N 1014,5 30
13.06.2019 05:00:00 13,8 10,1 13 7 N 1014,8 30
13.06.2019 04:00:00 13,5 9,3 15 8 NNE 1014,9 30
13.06.2019 03:00:00 13,5 8,7 9 5 NNE 1015,3 30
13.06.2019 02:00:00 13,9 8,7 13 7 N 1015,4 30
13.06.2019 01:00:00 13,2 10,2 11 6 N 1015,8 30
13.06.2019 00:00:00 13,6 10,1 11 6 NNW 1015,7 10
12.06.2019 23:00:00 14,7 10,8 9 5 NNW 1015,8 30
12.06.2019 22:00:00 16,3 9,8 0 0 N 1015,4 30
12.06.2019 21:00:00 18,0 10,2 8 4 S 1014,9 30
12.06.2019 20:00:00 19,3 9,1 9 5 S 1014,6 30
12.06.2019 19:00:00 20,3 10,1 11 6 S 1014,3 30
12.06.2019 18:00:00 20,8 9,3 13 7 SSW 1014,5 30
12.06.2019 17:00:00 21,2 9,0 13 7 S 1014,5 30
12.06.2019 16:00:00 21,6 8,8 16 9 SSW 1014,6 30
12.06.2019 15:00:00 21,1 9,1 15 8 S 1014,8 30
12.06.2019 14:00:00 20,8 9,9 16 9 SSE 1015,1 30
12.06.2019 13:00:00 20,6 8,6 15 8 SE 1015,3 30
12.06.2019 12:00:00 20,3 7,2 5 3 NNE 1015,6 30
12.06.2019 11:00:00 18,7 9,3 5 3 E 1015,9 30
12.06.2019 10:00:00 16,8 8,2 4 2 S 1016,0 30
12.06.2019 09:00:00 15,4 10,5 4 2 S 1015,8 30
12.06.2019 08:00:00 13,0 11,1 0 0 N 1015,6 30
12.06.2019 07:00:00 9,4 8,9 4 2 NNW 1015,0 30
12.06.2019 06:00:00 9,7 9,6 11 6 N 1014,6 12
12.06.2019 05:00:00 10,1 9,8 5 3 N 1014,5 8
12.06.2019 04:00:00 11,1 10,8 5 3 N 1014,5 6
12.06.2019 03:00:00 12,0 11,7 8 4 N 1014,9 9
12.06.2019 02:00:00 12,1 11,8 5 3 N 1015,2 9
12.06.2019 01:00:00 13,1 12,6 4 2 NW 1015,5 6
12.06.2019 00:00:00 13,5 12,8 5 3 ENE 1015,3 18
11.06.2019 23:00:00 13,3 12,9 2 1 ENE 1015,2 7
11.06.2019 22:00:00 14,0 13,0 4 2 NNW 1014,3 30
11.06.2019 21:00:00 14,7 13,5 8 4 N 1013,5 30
11.06.2019 20:00:00 14,6 13,1 8 4 NE 1013,2 20

tt = temperature
td = dewpoint
ff = wind speed
dd = wind direction
ppp = reduced air pressure
vv = visibility

Next stations